Total_Precipitation_Accumulation
0.70 0.54 0.94 0.91 0.77 0.69 0.63 0.60 0.63 0.66 0.59 0.52 0.49 0.44 0.39 0.36 0.35 0.34 0.33 0.30 0.33 0.31 0.31 0.31 0.33 0.39 0.39 0.38 0.45 0.53 0.58 0.46 0.43 0.42 0.35 0.35 0.39 0.36 0.39 0.52 0.89 1.23 0.68
0.41 0.43 0.88 0.89 0.73 0.64 0.58 0.57 0.62 0.62 0.60 0.55 0.50 0.47 0.38 0.31 0.31 0.30 0.29 0.28 0.31 0.30 0.29 0.28 0.31 0.37 0.41 0.40 0.49 0.58 0.56 0.51 0.52 0.52 0.49 0.52 0.49 0.41 0.40 0.45 0.82 1.11 0.73
0.37 0.40 0.63 0.85 0.78 0.71 0.65 0.59 0.58 0.59 0.59 0.51 0.46 0.46 0.39 0.30 0.29 0.30 0.28 0.27 0.27 0.31 0.29 0.29 0.33 0.37 0.43 0.51 0.53 0.54 0.51 0.52 0.55 0.64 0.88 1.31 0.93 0.58 0.52 0.47 0.61 0.66 0.64
0.41 0.43 0.53 0.85 0.84 0.80 0.73 0.66 0.65 0.63 0.59 0.53 0.46 0.43 0.37 0.32 0.31 0.33 0.29 0.28 0.28 0.30 0.33 0.34 0.34 0.38 0.43 0.50 0.53 0.50 0.46 0.51 0.56 0.64 0.94 1.36 1.27 0.90 0.72 0.67 0.72 0.60 0.62
0.40 0.46 0.63 0.90 0.85 0.85 0.79 0.78 0.79 0.72 0.67 0.59 0.51 0.48 0.44 0.40 0.34 0.33 0.31 0.30 0.31 0.33 0.34 0.36 0.37 0.41 0.45 0.46 0.43 0.41 0.43 0.55 0.67 0.59 0.82 1.13 1.49 1.20 0.85 0.87 0.92 0.77 0.68
0.44 0.46 0.63 0.84 0.79 0.81 0.81 0.83 0.84 0.73 0.66 0.59 0.52 0.51 0.50 0.46 0.40 0.38 0.38 0.42 0.40 0.41 0.40 0.41 0.42 0.46 0.48 0.47 0.43 0.42 0.53 0.61 0.58 0.72 0.86 1.12 1.51 1.26 0.98 0.96 0.95 1.03 0.84
0.51 0.45 0.50 0.69 0.72 0.77 0.75 0.70 0.77 0.74 0.70 0.60 0.52 0.49 0.49 0.46 0.46 0.46 0.49 0.51 0.52 0.52 0.49 0.49 0.49 0.47 0.48 0.52 0.48 0.47 0.59 0.59 0.65 0.84 0.85 1.09 1.17 1.14 1.01 0.96 1.01 1.21 1.09
0.62 0.52 0.46 0.57 0.66 0.69 0.69 0.73 0.85 0.84 0.76 0.61 0.51 0.51 0.51 0.52 0.51 0.51 0.52 0.52 0.58 0.64 0.63 0.57 0.55 0.48 0.48 0.54 0.52 0.53 0.63 0.66 0.65 0.72 0.69 0.91 1.15 1.20 0.97 0.94 1.01 1.17 1.25
0.89 0.75 0.61 0.59 0.63 0.74 0.80 0.84 0.96 0.99 0.91 0.73 0.59 0.59 0.59 0.54 0.50 0.50 0.54 0.56 0.58 0.62 0.64 0.62 0.60 0.55 0.53 0.54 0.55 0.58 0.69 0.71 0.68 0.67 0.57 0.90 1.19 1.12 0.94 0.87 0.91 1.05 1.18
0.93 0.88 0.80 0.74 0.75 0.82 0.88 1.02 1.12 1.22 1.32 1.07 0.79 0.70 0.65 0.55 0.50 0.52 0.54 0.56 0.60 0.69 0.69 0.67 0.67 0.62 0.64 0.60 0.56 0.55 0.62 0.58 0.57 0.57 0.64 0.80 1.10 1.12 0.94 0.83 0.81 0.82 0.91
0.68 0.72 0.77 0.80 0.86 0.87 0.82 0.89 1.12 1.29 1.47 1.20 0.83 0.85 0.77 0.55 0.56 0.60 0.60 0.72 0.77 0.81 0.82 0.82 0.83 0.81 0.79 0.71 0.64 0.59 0.48 0.34 0.46 0.56 0.66 0.78 1.07 1.11 0.89 0.76 0.62 0.64 0.68
0.55 0.52 0.54 0.57 0.66 0.73 0.72 0.93 1.18 1.22 1.34 1.09 0.92 0.95 0.92 0.97 0.91 0.70 0.69 0.88 0.98 1.03 0.98 0.96 0.99 0.92 0.80 0.63 0.62 0.55 0.33 0.30 0.43 0.51 0.57 0.81 1.10 1.09 0.89 0.70 0.56 0.56 0.56
0.43 0.40 0.39 0.41 0.44 0.53 0.74 0.98 1.20 1.25 1.29 1.33 1.36 1.22 1.20 1.16 0.96 0.79 0.76 0.80 0.87 0.95 0.90 0.99 0.99 0.84 0.73 0.61 0.57 0.43 0.30 0.33 0.47 0.50 0.61 0.81 1.04 1.04 0.93 0.77 0.61 0.55 0.53
0.46 0.44 0.38 0.30 0.31 0.39 0.53 0.75 1.03 1.10 1.16 1.24 1.24 1.04 1.13 1.13 0.95 0.89 0.97 1.00 0.97 0.95 1.07 1.11 1.06 0.99 0.83 0.65 0.60 0.56 0.46 0.38 0.47 0.56 0.71 0.67 0.93 1.06 0.97 0.85 0.70 0.63 0.57
0.54 0.61 0.59 0.43 0.37 0.39 0.45 0.50 0.64 0.74 0.85 1.13 1.21 0.95 0.93 0.95 0.99 1.02 0.93 1.07 1.13 1.13 1.13 1.11 1.01 0.95 0.92 0.80 0.78 0.76 0.68 0.52 0.53 0.57 0.73 0.61 0.71 0.96 1.05 0.96 0.86 0.73 0.66
0.38 0.49 0.57 0.55 0.54 0.52 0.45 0.40 0.40 0.46 0.59 0.74 0.76 0.72 0.75 0.78 0.88 1.05 0.98 0.97 1.04 1.22 1.28 1.21 1.10 1.10 1.06 0.88 0.84 0.90 0.80 0.70 0.68 0.69 0.80 0.67 0.49 0.54 0.79 0.93 0.94 0.86 0.76
0.28 0.33 0.42 0.50 0.56 0.58 0.59 0.58 0.48 0.47 0.54 0.56 0.56 0.62 0.69 0.69 0.82 0.99 0.95 0.86 0.83 0.99 1.16 1.28 1.30 1.23 1.08 0.97 0.89 0.88 0.80 0.75 0.74 0.87 0.87 0.81 0.62 0.42 0.51 0.72 0.84 0.88 0.87
0.26 0.25 0.31 0.36 0.43 0.53 0.62 0.69 0.66 0.62 0.58 0.52 0.49 0.47 0.50 0.52 0.61 0.80 0.88 0.79 0.78 0.94 1.14 1.30 1.39 1.41 1.27 1.20 1.16 1.01 0.89 0.82 0.79 0.87 0.91 0.92 0.89 0.69 0.59 0.53 0.59 0.70 0.82
0.26 0.23 0.24 0.28 0.33 0.40 0.51 0.58 0.58 0.57 0.54 0.52 0.52 0.41 0.39 0.41 0.53 0.73 0.91 0.94 0.95 1.04 1.15 1.20 1.37 1.42 1.45 1.34 1.23 1.06 0.95 0.91 0.83 0.78 0.90 0.94 0.97 0.89 0.80 0.55 0.44 0.46 0.61
0.25 0.24 0.24 0.26 0.27 0.31 0.36 0.43 0.48 0.46 0.44 0.50 0.49 0.47 0.51 0.58 0.65 0.84 1.06 1.15 1.26 1.28 1.30 1.44 1.70 1.68 1.51 1.46 1.36 1.14 0.94 0.90 0.89 0.87 0.84 0.93 1.01 0.96 0.85 0.72 0.58 0.38 0.41
0.19 0.18 0.19 0.24 0.27 0.25 0.24 0.29 0.34 0.35 0.44 0.51 0.59 0.64 0.69 0.72 0.79 1.00 1.21 1.44 1.57 1.44 1.42 1.59 1.83 1.97 1.78 1.62 1.60 1.44 1.22 0.99 0.93 0.93 0.89 0.96 1.05 1.06 1.00 0.97 0.83 0.67 0.52
0.06 0.09 0.13 0.15 0.18 0.18 0.18 0.23 0.32 0.39 0.45 0.58 0.74 0.85 0.87 0.85 0.90 0.95 1.15 1.35 1.42 1.46 1.48 1.56 1.73 2.02 1.94 1.75 1.80 2.05 1.82 1.50 1.05 0.85 0.94 1.00 1.10 1.10 1.01 0.89 0.89 0.83 0.73
0.04 0.04 0.07 0.12 0.16 0.16 0.23 0.41 0.68 0.92 1.01 1.02 1.04 1.19 1.28 1.24 1.19 1.16 1.19 1.32 1.40 1.53 1.54 1.57 1.61 1.79 1.90 1.84 1.87 2.27 2.10 1.85 1.66 1.16 0.90 0.98 1.10 1.18 1.12 1.04 0.99 0.96 0.89
0.04 0.05 0.06 0.11 0.16 0.20 0.36 0.68 1.07 1.40 1.48 1.49 1.61 1.65 1.71 1.63 1.50 1.47 1.48 1.56 1.50 1.49 1.46 1.47 1.47 1.61 1.88 1.93 1.86 1.79 1.75 1.74 1.96 1.67 1.17 1.02 1.07 1.08 1.11 1.05 1.06 1.10 1.12
0.11 0.13 0.15 0.21 0.34 0.51 0.66 0.83 1.13 1.32 1.44 1.58 1.74 1.88 1.99 2.11 2.08 2.00 1.92 1.77 1.59 1.51 1.51 1.54 1.54 1.60 1.69 1.77 1.74 1.69 1.69 1.63 1.47 1.57 1.51 1.26 1.09 0.99 1.03 1.09 1.11 1.12 1.21
0.25 0.28 0.32 0.41 0.51 0.58 0.70 0.84 0.98 1.07 1.23 1.43 1.58 1.75 1.88 2.00 2.03 1.97 1.84 1.61 1.44 1.38 1.44 1.55 1.57 1.60 1.59 1.63 1.60 1.50 1.50 1.50 1.41 1.49 1.41 1.40 1.39 1.06 0.94 0.96 1.02 1.04 1.05